This is the latest recevied weather packets stored in our database for station/object KB3HLL. If no packets are shown the sender has not sent any weather packets the latest 10 day(s).
| Time | Temp. | Humidity | Pressure | Rain* | Wind** | Luminosity | Snow |
|---|---|---|---|---|---|---|---|
| 1777766778 | 4.44° C | 83% | 1013.5 hPa | 0 mm | - | 1 W/m² | - |
| 1777766477 | 5° C | 82% | 1013.5 hPa | 0 mm | - | 3 W/m² | - |
| 1777766177 | 5° C | 82% | 1013.5 hPa | 0 mm | - | 4 W/m² | - |
| 1777765878 | 5° C | 80% | 1013.4 hPa | 0 mm | - | 6 W/m² | - |
| 1777765577 | 5° C | 79% | 1013.4 hPa | 0 mm | - | 7 W/m² | - |
| 1777765277 | 5° C | 81% | 1013.4 hPa | 0 mm | - | 10 W/m² | - |
| 1777764977 | 5° C | 79% | 1013.4 hPa | 0 mm | - | 12 W/m² | - |
| 1777764680 | 5° C | 78% | 1013.4 hPa | 0 mm | - | 16 W/m² | - |
| 1777764389 | 5.56° C | 78% | 1013.4 hPa | 0 mm | - | 21 W/m² | - |
| 1777764077 | 5.56° C | 77% | 1013.4 hPa | 0 mm | - | 27 W/m² | - |
| 1777763778 | 5.56° C | 77% | 1013.4 hPa | 0 mm | - | 31 W/m² | - |
| 1777763477 | 5.56° C | 77% | 1013.3 hPa | 0 mm | - | 34 W/m² | - |
| 1777763178 | 5.56° C | 75% | 1013.3 hPa | 0 mm | - | 32 W/m² | - |
| 1777762877 | 6.11° C | 74% | 1013.1 hPa | 0 mm | - | 32 W/m² | - |
| 1777762577 | 6.11° C | 74% | 1013.3 hPa | 0 mm | - | 32 W/m² | - |
| 1777762277 | 6.11° C | 73% | 1013.3 hPa | 0 mm | - | 41 W/m² | - |
| 1777761977 | 6.11° C | 72% | 1013.3 hPa | 0 mm | - | 57 W/m² | - |
| 1777761677 | 6.11° C | 72% | 1013.1 hPa | 0 mm | - | 71 W/m² | - |
| 1777761377 | 6.67° C | 74% | 1012.9 hPa | 0 mm | - | 81 W/m² | - |
| 1777761077 | 6.67° C | 70% | 1013 hPa | 0 mm | - | 98 W/m² | - |
| 1777760778 | 6.67° C | 71% | 1013 hPa | 0 mm | - | 116 W/m² | - |
| 1777760478 | 6.67° C | 71% | 1012.9 hPa | 0 mm | - | 129 W/m² | - |
| 1777760177 | 6.67° C | 70% | 1012.9 hPa | 0 mm | - | 141 W/m² | - |
| 1777759877 | 6.67° C | 70% | 1012.9 hPa | 0 mm | - | 165 W/m² | - |
| 1777759578 | 7.22° C | 68% | 1012.9 hPa | 0 mm | - | 183 W/m² | - |
* Rain latest hour (hover to see other rain measurements)
** Current wind speed in m/s (hover to see current wind gust speed)